Home   Weather   Marengo   Past weeks

Flag for USA Past Weather in Marengo, Indiana, USA — Yesterday and Last 2 Weeks

Now
73 °F

Sunny.


Feels Like: 76 °F
Forecast: 49 / 76 °F
Wind: 8 mph from South

Location: Bowling Green-Warren County Regional Airport

Current Time: Apr 28, 2017 at 12:33:24 pm

Latest Report: Apr 28, 2017 at 11:53 am


Visibility: 10 mi

Pressure: 29.92 "Hg

Humidity: 66%

Dew Point: 61 °F

Location of MarengoLocation

Past Weather in Marengo — Graph

°F

Marengo Temperature Yesterday

Maximum temperature yesterday: 74 °F (at 1:53 am)
Minimum temperature yesterday: 52 °F (at 11:53 pm)
Average temperature yesterday: 63 °F

High & Low Weather Summary for the Past Weeks

 TemperatureHumidityPressure
High85 °F (Apr 14, 2:53 pm)100% (Apr 22, 6:53 am)30.31 "Hg (Apr 22, 6:53 am)
Low48 °F (Apr 23, 10:01 am)25% (Apr 13, 4:53 pm)29.55 "Hg (Apr 26, 8:53 pm)
Average65 °F76%29.96 "Hg
* Reported Apr 13 10:53 am — Apr 28 10:53 am, Marengo, Weather by CustomWeather, © 2017

Note: Actual official high and low records may vary slightly from our data, if they occured in-between our weather recording intervals... More about our weather records

Advertising

Marengo Weather History for the Previous 24 Hours

Scroll right to see more
 ConditionsComfort  
Time TempWeatherWind HumidityBarometerVisibility
10:53 am
Fri, Apr 28
65 °FSunny.5 mph81%29.93 "Hg10 mi
9:53 am60 °FSunny.No wind83%29.97 "Hg10 mi
8:53 am56 °FSunny.6 mph93%29.93 "Hg10 mi
7:53 am53 °FSunny.3 mph96%29.95 "Hg10 mi
6:53 am52 °FSunny.3 mph97%29.95 "Hg10 mi
5:53 am50 °FSunny.5 mph96%29.92 "Hg10 mi
4:53 am52 °FClear.3 mph97%29.92 "Hg10 mi
3:53 am51 °FClear.No wind96%29.91 "Hg10 mi
2:53 am50 °FClear.No wind96%29.91 "Hg10 mi
2:32 am49 °FFog.3 mph97%29.92 "Hg2 mi
2:04 am50 °FClear.No wind100%29.93 "Hg10 mi
12:53 am50 °FClear.No wind96%29.90 "Hg10 mi
11:53 pm
Thu, Apr 27
52 °FClear.No wind97%29.90 "Hg10 mi
10:53 pm54 °FClear.No wind93%29.88 "Hg10 mi
9:53 pm56 °FClear.No wind84%29.86 "Hg10 mi
8:53 pm60 °FClear.5 mph72%29.85 "Hg10 mi
7:53 pm62 °FClear.6 mph67%29.84 "Hg10 mi
6:53 pm64 °FSunny.7 mph63%29.83 "Hg10 mi
5:53 pm65 °FSunny.8 mph63%29.83 "Hg10 mi
4:53 pm64 °FScattered clouds.10 mph63%29.81 "Hg10 mi
4:25 pm64 °FScattered clouds.9 mph65%29.82 "Hg10 mi
4:15 pm65 °FPartly sunny.15 mph63%29.82 "Hg10 mi
3:53 pm65 °FScattered clouds.13 mph66%29.81 "Hg10 mi
2:53 pm64 °FPartly sunny.12 mph70%29.79 "Hg10 mi
1:53 pm62 °FOvercast.16 mph75%29.78 "Hg10 mi
12:53 pm63 °FMostly cloudy.16 mph73%29.76 "Hg10 mi
Weather by CustomWeather, © 2017

See weather overviewHow to use our weather pages